Weather reports worldwide

Advertisment
Ploce, Croatia (14462): temperature & dewpoint: 18.05.2018 08:00:00 - 24.05.2018 08:00:00 (CEST)Ploce, Croatia (14462): wind speed: 18.05.2018 08:00:00 - 24.05.2018 08:00:00 (CEST)Ploce, Croatia (14462): wind direction: 18.05.2018 08:00:00 - 24.05.2018 08:00:00 (CEST)Ploce, Croatia (14462): reduced air pressure: 18.05.2018 08:00:00 - 24.05.2018 08:00:00 (CEST)Ploce, Croatia (14462): visibility: 18.05.2018 08:00:00 - 24.05.2018 08:00:00 (CEST)
Date & Time tt [°C] td [°C] ff [km/h] ff [kn] dd ppp [hPa] vv [km]
24.05.2018 08:00:00 - - - - - - -
24.05.2018 07:00:00 - - - - - - -
24.05.2018 06:00:00 - - - - - - -
24.05.2018 05:00:00 - - - - - - -
24.05.2018 04:00:00 - - - - - - -
24.05.2018 03:00:00 - - - - - - -
24.05.2018 02:00:00 - - - - - - -
24.05.2018 01:00:00 - - - - - - -
24.05.2018 00:00:00 - - - - - - -
23.05.2018 23:00:00 - - - - - - -
23.05.2018 22:00:00 17,7 15,9 4 2 NNE 1014,7 30
23.05.2018 21:00:00 18,8 15,6 7 4 ENE 1013,9 30
23.05.2018 20:00:00 18,8 15,9 18 10 NNE 1014,0 30
23.05.2018 19:00:00 - - - - - - -
23.05.2018 18:00:00 - - - - - - -
23.05.2018 17:00:00 - - - - - - -
23.05.2018 16:00:00 - - - - - - -
23.05.2018 15:00:00 25,5 16,8 11 6 S 1013,3 30
23.05.2018 14:00:00 27,8 14,1 11 6 SSW 1012,7 30
23.05.2018 13:00:00 27,0 16,3 11 6 SW 1013,2 30
23.05.2018 12:00:00 26,1 16,3 11 6 SSW 1013,6 30
23.05.2018 11:00:00 25,2 15,4 14 8 NNE 1014,0 30
23.05.2018 10:00:00 25,0 14,8 18 10 NNE 1014,2 30
23.05.2018 09:00:00 22,5 16,3 7 4 ENE 1014,9 30
23.05.2018 08:00:00 21,8 15,8 4 2 NNW 1014,9 30
23.05.2018 07:00:00 - - - - - - -
23.05.2018 06:00:00 - - - - - - -
23.05.2018 05:00:00 - - - - - - -
23.05.2018 04:00:00 - - - - - - -
23.05.2018 03:00:00 - - - - - - -
23.05.2018 02:00:00 - - - - - - -
23.05.2018 01:00:00 - - - - - - -
23.05.2018 00:00:00 - - - - - - -
22.05.2018 23:00:00 - - - - - - -
22.05.2018 22:00:00 21,4 17,1 7 4 E 1016,4 20
22.05.2018 21:00:00 22,7 16,5 7 4 SW 1016,1 20
22.05.2018 20:00:00 22,8 15,8 7 4 NNW 1015,0 20
22.05.2018 19:00:00 - - - - - - -
22.05.2018 18:00:00 - - - - - - -
22.05.2018 17:00:00 - - - - - - -
22.05.2018 16:00:00 - - - - - - -
22.05.2018 15:00:00 24,5 14,9 11 6 SSW 1015,6 30
22.05.2018 14:00:00 24,1 14,6 11 6 SSE 1015,6 30
22.05.2018 13:00:00 24,7 14,6 11 6 SE 1015,7 30
22.05.2018 12:00:00 24,7 15,9 11 6 SE 1015,7 30
22.05.2018 11:00:00 22,5 14,3 0 0 N 1015,8 30
22.05.2018 10:00:00 21,9 14,0 7 4 ESE 1015,6 30
22.05.2018 09:00:00 21,9 14,4 7 4 E 1014,9 30
22.05.2018 08:00:00 19,9 12,8 7 4 E 1014,6 30
22.05.2018 07:00:00 - - - - - - -
22.05.2018 06:00:00 - - - - - - -
22.05.2018 05:00:00 - - - - - - -
22.05.2018 04:00:00 - - - - - - -
22.05.2018 03:00:00 - - - - - - -
22.05.2018 02:00:00 - - - - - - -
22.05.2018 01:00:00 - - - - - - -
22.05.2018 00:00:00 - - - - - - -
21.05.2018 23:00:00 - - - - - - -
21.05.2018 22:00:00 21,3 15,6 0 0 N 1012,7 30
21.05.2018 21:00:00 23,0 12,9 4 2 NNW 1012,4 30
21.05.2018 20:00:00 24,2 12,6 0 0 N 1012,2 30
21.05.2018 19:00:00 - - - - - - -
21.05.2018 18:00:00 - - - - - - -
21.05.2018 17:00:00 - - - - - - -
21.05.2018 16:00:00 - - - - - - -
21.05.2018 15:00:00 27,8 12,1 14 8 WSW 1011,7 30
21.05.2018 14:00:00 27,8 12,1 18 10 WSW 1012,1 30
21.05.2018 13:00:00 27,2 12,5 14 8 SW 1012,5 30
21.05.2018 12:00:00 26,8 12,0 7 4 SSW 1013,0 30
21.05.2018 11:00:00 25,8 12,9 11 6 S 1013,2 30
21.05.2018 10:00:00 24,8 12,6 7 4 WSW 1013,6 30
21.05.2018 09:00:00 23,5 11,9 7 4 ESE 1013,7 30
21.05.2018 08:00:00 21,4 12,3 0 0 N 1013,7 30
21.05.2018 07:00:00 - - - - - - -
21.05.2018 06:00:00 - - - - - - -
21.05.2018 05:00:00 - - - - - - -
21.05.2018 04:00:00 - - - - - - -
21.05.2018 03:00:00 - - - - - - -
21.05.2018 02:00:00 - - - - - - -
21.05.2018 01:00:00 - - - - - - -
21.05.2018 00:00:00 - - - - - - -
20.05.2018 23:00:00 - - - - - - -
20.05.2018 22:00:00 23,8 12,9 14 8 NNW 1012,7 30
20.05.2018 21:00:00 23,4 14,0 11 6 NNW 1012,2 30
20.05.2018 20:00:00 24,4 - 7 4 N - 30
20.05.2018 19:00:00 - - - - - - -
20.05.2018 18:00:00 - - - - - - -
20.05.2018 17:00:00 - - - - - - -
20.05.2018 16:00:00 - - - - - - -
20.05.2018 15:00:00 28,5 10,7 14 8 W 1012,8 30
20.05.2018 14:00:00 27,1 10,4 22 12 WSW 1013,4 30
20.05.2018 13:00:00 26,5 11,3 18 10 SW 1013,7 30
20.05.2018 12:00:00 26,2 12,4 14 8 SW 1014,3 30
20.05.2018 11:00:00 25,4 12,6 11 6 SSW 1014,4 30
20.05.2018 10:00:00 23,8 10,7 14 8 NNW 1014,5 30
20.05.2018 09:00:00 22,8 10,4 11 6 N 1015,1 30
20.05.2018 08:00:00 21,1 10,5 7 4 NNE 1015,1 30
20.05.2018 07:00:00 - - - - - - -
20.05.2018 06:00:00 - - - - - - -
20.05.2018 05:00:00 - - - - - - -
20.05.2018 04:00:00 - - - - - - -
20.05.2018 03:00:00 - - - - - - -
20.05.2018 02:00:00 - - - - - - -
20.05.2018 01:00:00 - - - - - - -
20.05.2018 00:00:00 - - - - - - -
19.05.2018 23:00:00 - - - - - - -
19.05.2018 22:00:00 19,8 14,3 7 4 NNW 1013,4 30
19.05.2018 21:00:00 21,6 13,5 11 6 NNE 1012,7 30
19.05.2018 20:00:00 22,2 12,5 25 14 NW 1012,5 30
19.05.2018 19:00:00 - - - - - - -
19.05.2018 18:00:00 - - - - - - -
19.05.2018 17:00:00 - - - - - - -
19.05.2018 16:00:00 - - - - - - -
19.05.2018 15:00:00 24,9 10,0 25 14 W 1013,0 30
19.05.2018 14:00:00 24,9 10,0 25 14 W 1013,0 30
19.05.2018 13:00:00 25,0 9,0 18 10 WSW 1013,6 30
19.05.2018 12:00:00 25,3 8,0 11 6 NNW 1013,7 30
19.05.2018 11:00:00 24,2 8,5 18 10 NNE 1013,9 30
19.05.2018 10:00:00 22,7 8,5 7 4 NNE 1013,9 30
19.05.2018 09:00:00 19,8 11,1 7 4 SE 1013,9 30
19.05.2018 08:00:00 17,8 11,3 7 4 ESE 1013,9 30
19.05.2018 07:00:00 - - - - - - -
19.05.2018 06:00:00 - - - - - - -
19.05.2018 05:00:00 - - - - - - -
19.05.2018 04:00:00 - - - - - - -
19.05.2018 03:00:00 - - - - - - -
19.05.2018 02:00:00 - - - - - - -
19.05.2018 01:00:00 - - - - - - -
19.05.2018 00:00:00 - - - - - - -
18.05.2018 23:00:00 - - - - - - -
18.05.2018 22:00:00 19,4 14,7 4 2 ESE 1014,8 30
18.05.2018 21:00:00 19,8 13,8 7 4 SSE 1014,4 30
18.05.2018 20:00:00 20,7 13,9 14 8 WSW 1014,4 30
18.05.2018 19:00:00 - - - - - - -
18.05.2018 18:00:00 - - - - - - -
18.05.2018 17:00:00 - - - - - - -
18.05.2018 16:00:00 - - - - - - -
18.05.2018 15:00:00 23,5 9,1 18 10 WSW 1014,8 30
18.05.2018 14:00:00 23,5 6,7 18 10 WSW 1015,1 30
18.05.2018 13:00:00 - - - - - - -
18.05.2018 12:00:00 21,8 11,6 18 10 SW 1015,5 30
18.05.2018 11:00:00 21,5 11,8 7 4 SSE 1015,9 30
18.05.2018 10:00:00 20,0 11,5 7 4 SSE 1016,0 30
18.05.2018 09:00:00 18,0 12,4 7 4 SSE 1016,5 30
18.05.2018 08:00:00 15,8 12,4 11 6 E 1016,5 30

tt = temperature
td = dewpoint
ff = wind speed
dd = wind direction
ppp = reduced air pressure
vv = visibility

Next stations